Location: Igri�s
(42.2144°N, 0.4320°W)
Time: 11:29:51
(UTC+00:00)

Cosmos 2242 Rocket - Visible Passes

Search period start: 29 November 2020 00:00
Search period end: 09 December 2020 00:00
Orbit: 618 x 652 km, 82.5° (Epoch: 28 November)

Date Brightness Start Highest point End Pass type
(mag) Time Alt. Az. Time Alt. Az. Time Alt. Az.
30 Nov 6.6 05:58:51 10° NE 06:00:12 11° ENE 06:01:33 10° E visible
01 Dec 6.0 06:19:25 10° NNE 06:22:54 22° ENE 06:26:21 10° SE visible
02 Dec 4.8 06:41:12 10° N 06:45:26 45° ENE 06:49:39 10° SSE visible
04 Dec 6.3 05:48:37 10° NNE 05:51:43 18° ENE 05:54:48 10° ESE visible
05 Dec 5.1 06:10:12 10° N 06:14:18 36° ENE 06:18:21 10° SE visible
06 Dec 3.7 06:32:18 10° N 06:36:44 79° E 06:41:07 10° S visible
07 Dec 6.4 05:17:54 10° NNE 05:20:31 15° ENE 05:23:07 10° ESE visible
08 Dec 5.5 05:39:15 10° NNE 05:43:09 30° ENE 05:47:01 10° SE visible
